TimeEDT,TemperatureF,Dew PointF,Humidity,Sea Level PressureIn,VisibilityMPH,Wind Direction,Wind SpeedMPH,Gust SpeedMPH,PrecipitationIn,Events,Conditions,WindDirDegrees,DateUTC
12:51 AM,48.0,30.9,52,29.89,10.0,WSW,6.9,-,N/A,,Overcast,240,2013-04-13 04:51:00
1:51 AM,48.0,30.9,52,29.90,10.0,West,6.9,-,N/A,,Overcast,260,2013-04-13 05:51:00
2:51 AM,46.9,32.0,56,29.89,10.0,WNW,10.4,17.3,N/A,,Overcast,290,2013-04-13 06:51:00
3:51 AM,46.0,32.0,58,29.89,10.0,WNW,6.9,-,N/A,,Overcast,290,2013-04-13 07:51:00
4:51 AM,45.0,33.1,63,29.92,10.0,West,11.5,18.4,N/A,,Overcast,280,2013-04-13 08:51:00
5:15 AM,44.6,33.8,66,29.91,10.0,NW,9.2,-,N/A,,Overcast,310,2013-04-13 09:15:00
5:51 AM,43.0,32.0,65,29.93,10.0,WSW,6.9,-,N/A,,Mostly Cloudy,240,2013-04-13 09:51:00
6:19 AM,42.8,32.0,66,29.92,10.0,WSW,8.1,16.1,N/A,,Scattered Clouds,240,2013-04-13 10:19:00
6:51 AM,41.0,30.9,67,29.95,10.0,Calm,Calm,-,N/A,,Clear,0,2013-04-13 10:51:00
7:51 AM,42.8,32.0,66,29.95,10.0,Calm,Calm,-,N/A,,Overcast,0,2013-04-13 11:51:00
8:51 AM,43.0,30.9,62,29.99,10.0,WSW,4.6,-,N/A,,Overcast,250,2013-04-13 12:51:00
9:51 AM,44.1,30.0,58,30.00,10.0,SW,9.2,17.3,N/A,,Overcast,230,2013-04-13 13:51:00
10:51 AM,46.0,30.9,56,30.00,10.0,WSW,10.4,17.3,N/A,,Overcast,240,2013-04-13 14:51:00
11:51 AM,50.0,30.9,48,29.99,10.0,West,13.8,23.0,N/A,,Scattered Clouds,270,2013-04-13 15:51:00
12:51 PM,54.0,30.9,41,29.97,10.0,SW,13.8,23.0,N/A,,Partly Cloudy,230,2013-04-13 16:51:00
1:51 PM,57.0,30.9,37,29.94,10.0,WNW,16.1,21.9,N/A,,Clear,290,2013-04-13 17:51:00
2:51 PM,59.0,28.9,32,29.94,10.0,SW,10.4,23.0,N/A,,Clear,230,2013-04-13 18:51:00
3:51 PM,60.1,27.0,28,29.93,10.0,West,12.7,24.2,N/A,,Clear,270,2013-04-13 19:51:00
4:51 PM,60.1,26.1,27,29.93,10.0,WSW,19.6,29.9,N/A,,Clear,240,2013-04-13 20:51:00
5:51 PM,60.1,25.0,26,29.92,10.0,WNW,16.1,25.3,N/A,,Clear,290,2013-04-13 21:51:00
6:51 PM,59.0,19.0,21,29.95,10.0,West,10.4,24.2,N/A,,Clear,270,2013-04-13 22:51:00
7:51 PM,55.0,21.9,28,29.96,10.0,West,9.2,18.4,N/A,,Clear,280,2013-04-13 23:51:00
8:51 PM,54.0,21.0,28,29.99,10.0,West,8.1,-,N/A,,Clear,260,2013-04-14 00:51:00
9:51 PM,52.0,23.0,32,30.02,10.0,West,9.2,16.1,N/A,,Clear,280,2013-04-14 01:51:00
10:51 PM,50.0,25.0,38,30.04,10.0,WNW,5.8,-,N/A,,Clear,290,2013-04-14 02:51:00
11:51 PM,45.0,27.0,49,30.05,10.0,Calm,Calm,-,N/A,,Clear,0,2013-04-14 03:51:00